Regional Weather Roundup
Issued by NWS

Home | Current Version | Previous Version | Text Only | Print | Product List | Glossary On
Versions: 1 2 3 4 5 6 7 8 9 10 11 12 13 14 15 16 17 18 19 20 21 22 23 24 25 26 27 28 29 30 31 32 33 34 35 36 37 38 39 40 41 42 43 44 45 46 47 48
000
ASUS43 KDMX 280207
RWRIA

WEATHER ROUNDUP FOR IOWA
NATIONAL WEATHER SERVICE DES MOINES IA
900 PM CDT MON APR 27 2015

NOTE: "FAIR" INDICATES FEW OR NO CLOUDS BELOW 12,000 FEET WITH NO
SIGNIFICANT WEATHER AND/OR OBSTRUCTIONS TO VISIBILITY.

* - THESE STATIONS ARE NOT NWS STATIONS...THUS NOT UNDER NWS
QUALITY CONTROL.  THEY ALSO DO NOT REPORT WEATHER SUCH
AS PRECIPITATION OR FOG.

IAZ001>003-012>014-020>022-031>034-043>046-280300-
   NORTHWEST IOWA

CITY           SKY/WX    TMP DP  RH WIND       PRES   REMARKS
CARROLL *      CLEAR     54  34  47 N7        30.14R
CHEROKEE *     PTCLDY    55  32  41 CALM      30.15R
DENISON *      CLEAR     57  32  38 NE6       30.13R
LE MARS *      CLEAR     59  32  36 NE3       30.16R
ORANGE CITY *  CLEAR     59  27  29 E3        30.16R
SHELDON *      CLEAR     57  25  28 NE6       30.15R
SIOUX CITY     MOCLDY    62  28  27 E6        30.14R
SPENCER        CLEAR     57  29  34 CALM      30.15R
STORM LAKE *   CLEAR     57  34  41 NE6       30.16R
$$

IAZ055>058-069>071-079>083-090>094-280300-
   SOUTHWEST IOWA

CITY           SKY/WX    TMP DP  RH WIND       PRES   REMARKS
ATLANTIC *     CLEAR     55  34  44 N3        30.13R
AUDUBON *      CLEAR     52  37  58 CALM      30.15R
CLARINDA *     CLEAR     55  37  50 CALM      30.13R
COUNCIL BLFS * CLEAR     57  34  41 NE6       30.14R
CRESTON *      CLEAR     57  34  41 NE6       30.13R
HARLAN  *      CLEAR     55  36  47 N5        30.17R
LAMONI         CLEAR     55  36  48 NE6       30.11R
RED OAK *      CLEAR     55  36  47 NE6       30.13R
SHENANDOAH *   CLEAR     55  36  47 CALM      30.13R
$$

IAZ047>049-059>061-072>074-084-280300-
   CENTRAL IOWA

CITY           SKY/WX    TMP DP  RH WIND       PRES   REMARKS
AMES           CLEAR     58  33  39 NE5       30.12R
ANKENY *       CLEAR     57  34  41 CALM      30.12R
CHARITON *     CLEAR     57  36  44 NE3       30.12R
DES MOINES     PTCLDY    62  30  29 E3        30.12R
GRINNELL*      CLEAR     55  34  44 N3        30.12R
KNOXVILLE *    CLEAR     59  34  38 CALM      30.10R
MARSHALLTOWN   CLEAR     56  34  43 N7        30.11R
PELLA *        CLEAR     59  39  47 CALM      30.12R
PERRY *          N/A     59  32  36 NE5       30.13R
$$

IAZ004>006-015-016-023>025-035-036-280300-
   NORTH CENTRAL IOWA

CITY           SKY/WX    TMP DP  RH WIND       PRES   REMARKS
ALGONA *       CLEAR     57  32  38 NE5       30.15S
CLARION *      CLEAR     54  32  43 N7        30.14R
ESTHERVILLE    PTCLDY    52  27  38 NE5       30.15R
FORT DODGE *   CLEAR     57  32  38 NE6       30.16R
MASON CITY     CLEAR     52  34  50 N8        30.15R
FOREST CITY *  CLEAR     52  32  46 N5        30.14S
IOWA FALLS *     N/A     59  32  36 N3        30.14R
$$

IAZ007>011-017>019-026>030-037>042-050>054-066-280300-
   NORTHEAST IOWA

CITY           SKY/WX    TMP DP  RH WIND       PRES   REMARKS
CEDAR RAPIDS   CLEAR     56  35  45 NE8       30.10R
CHARLES CITY * CLEAR     57  34  41 NE5       30.13R
CLINTON *      CLEAR     52  34  50 NW5       30.12R
DECORAH *      CLEAR     57  32  38 CALM      30.11S
DUBUQUE        CLEAR     50  34  54 NW3       30.11R
MONTICELLO *   CLEAR     55  34  44 NE3       30.10S
OELWEIN *      CLEAR     55  36  47 NE5       30.13R
WATERLOO       CLEAR     52  35  52 NE5       30.12R
$$

IAZ064-065-067-068-078-280300-
   EAST CENTRAL IOWA

CITY           SKY/WX    TMP DP  RH WIND       PRES   REMARKS
DAVENPORT      CLEAR     53  34  48 N5        30.10R
IOWA CITY      CLEAR     59  35  40 CALM      30.12R
MT. PLEASANT * CLEAR     54  36  50 NE6       30.11R
MUSCATINE *    CLEAR     54  37  54 CALM      30.11R
QUAD CITIES    CLEAR     50  38  63 CALM      30.09R
$$

IAZ062-063-075>077-085>089-095>099-280300-
   SOUTHEAST IOWA

CITY           SKY/WX    TMP DP  RH WIND       PRES   REMARKS
BURLINGTON     CLEAR     58  35  42 NE5       30.10R
FAIRFIELD *    CLEAR     57  36  44 NE3       30.11R
FORT MADISON * CLEAR     57  36  44 NE3       30.11R
KEOKUK *       CLEAR     57  36  44 NE5       30.09R
OSKALOOSA *      N/A     57  36  44 NE3       30.11R
CENTERVILLE *  CLEAR     55  36  47 NE5       30.12R
OTTUMWA        CLEAR     55  36  48 NE3       30.10R
WASHINGTON *   CLEAR     55  39  54 E6        30.11R
$$

ABBREVIATIONS USED IN REMARKS
   TC - TEMPERATURES IN CELSIUS
  WCI - WIND CHILL INDEX
   HX - HEAT INDEX
  VSB - VISIBILITY
$$



USA.gov is the U.S. government's official web portal to all federal, state and local government web resources and services.